[Iaude] MPEC X87: 2023 XS1 [a=1.17,e=0.14,i=10.3,H=25.9]

mpec at marsden.cfa.harvard.edu mpec at marsden.cfa.harvard.edu
Tue Dec 5 22:23:36 EST 2023


M.P.E.C. 2023-X87                              Issued 2023 December 6, 03:22 UT

     The Minor Planet Electronic Circulars contain information on unusual
         minor planets, routine data on comets and natural satellites,
         and occasional editorial announcements.  They are published
    on behalf of Division F of the International Astronomical Union by the
          Minor Planet Center, Smithsonian Astrophysical Observatory,
                          Cambridge, MA 02138, U.S.A.
			  
             Prepared using the Tamkin Foundation Computer Network

                              MPC at CFA.HARVARD.EDU
            URL https://www.minorplanetcenter.net/    ISSN 1523-6714

                                    2023 XS1                                    


Observations:
     K23X01S*1C2023 12 04.32944203 24 17.586+15 59 50.89         20.41GVEX087G96
     K23X01S 1C2023 12 04.33459703 24 16.988+16 00 51.70         20.33GVEX087G96
     K23X01S 1C2023 12 04.33975403 24 16.434+16 01 51.85         20.22GVEX087G96
     K23X01S 1C2023 12 04.34489303 24 15.865+16 02 52.01         20.13GVEX087G96
     K23X01S KC2023 12 04.42322703 24 08.082+16 18 04.86         20.12GVEX087I52
     K23X01S KC2023 12 04.42436703 24 07.988+16 18 17.89         20.64GVEX087I52
     K23X01S KC2023 12 04.42550303 24 07.902+16 18 31.46         20.58GVEX087I52
     K23X01S KC2023 12 04.42664503 24 07.826+16 18 44.68         20.47GVEX087I52
     K23X01S mC2023 12 05.14224203 23 37.820+18 36 32.58         20.48GVEX087I52
     K23X01S mC2023 12 05.14301403 23 37.799+18 36 42.05         20.49GVEX087I52
     K23X01S mC2023 12 05.14379203 23 37.712+18 36 50.72         20.62GVEX087I52
     K23X01S mC2023 12 05.14456303 23 37.612+18 36 59.80         21.11GVEX087I52
     K23X01S KC2023 12 06.03840 03 22 36.58 +21 19 27.1          20.6 GVEX087204
     K23X01S KC2023 12 06.05461 03 22 35.24 +21 22 16.3                VEX087204

Observer details:
204 Schiaparelli Observatory.  Observers L. Buzzi, G. Galli.  0.84-m f/3.5
    reflector + CCD.
G96 Mt. Lemmon Survey.  Observer J. K. Hogan.  Measurers E. C. Beshore, D.
    Fay, J. B. Fazekas, D. C. Fuls, A. R. Gibbs, A. D. Grauer, H. Groeller, J.
    K. Hogan, R. A. Kowalski, S. M. Larson, G. J. Leonard, D. Rankin, R. L.
    Seaman, F. C. Shelly, K. W. Wierzchos.  1.5-m reflector + 10K CCD.
I52 Steward Observatory, Mt. Lemmon Station.  Observer G. J. Leonard.
    Measurers E. C. Beshore, D. Fay, J. B. Fazekas, D. C. Fuls, A. R. Gibbs,
    A. D. Grauer, H. Groeller, J. K. Hogan, R. A. Kowalski, S. M. Larson, G.
    J. Leonard, D. Rankin, R. L. Seaman, F. C. Shelly, K. W. Wierzchos.  1.0-m
    prime focus + CCD.

Orbital elements:
2023 XS1                                                 Earth MOID = 0.0488 AU
Epoch 2023 Sept. 13.0 TT = JDT 2460200.5                MPC                     
M 328.98087              (2000.0)            P               Q                  
n   0.78054742     Peri.  315.71606     +0.87949609     -0.44448290             
a   1.1682520      Node    71.38081     +0.47107102     +0.76227013             
e   0.1394507      Incl.   10.33807     +0.06766625     +0.47050951             
P   1.26           H   25.91          G   0.15           U   7                  
Residuals in seconds of arc
231204 G96  0.2+  0.1+    231204 I52  0.1-  0.3-    231205 I52  0.2+  0.0
231204 G96  0.2-  0.3+    231204 I52  0.1+  0.1+    231205 I52  0.1-  0.3+
231204 G96  0.1+  0.1-    231204 I52  0.4+  0.1+    231206 204  0.1-  0.1-
231204 G96  0.0   0.2-    231205 I52  0.5-  0.4-    231206 204  0.2+  0.0
231204 I52  0.2-  0.1-    231205 I52  0.3+  0.2+

Ephemeris:
2023 XS1                 a,e,i = 1.17, 0.14, 10                  q = 1.0053
Date    TT    R. A. (2000) Decl.     Delta      r    Elong.  Phase     V
2023 11 06    04 15 54.7 -63 18 26   0.09074 1.0095    98.9    76.0    23.4
...
2023 11 21    03 44 25.9 -34 10 16   0.05645 1.0223   126.1    51.3    21.6
...
2023 11 29    03 31 01.1 -03 53 12   0.05147 1.0324   152.4    26.3    20.7
...
2023 12 05    03 23 41.0 +18 10 17   0.05867 1.0412   161.0    18.0    20.8
2023 12 06    03 22 43.9 +21 13 42   0.06068 1.0428   160.3    18.5    20.9
2023 12 07    03 21 52.0 +24 04 52   0.06289 1.0444   159.3    19.5    21.0
...
2023 12 13    03 18 39.1 +37 15 59   0.07932 1.0545   150.7    27.2    21.7
...
2023 12 21    03 20 11.8 +47 16 43   0.1068  1.0692   141.3    35.1    22.6
...
2024 01 05    03 39 51.0 +55 05 43   0.1667  1.0999   131.0    42.4    23.9

A. U. Tomatic                (C) Copyright 2023 MPC           M.P.E.C. 2023-X87





More information about the Iaude mailing list